Location: *
(46.3500°N, 10.9000°E)
Time: 21:45:21
(UTC+00:00)

A-11 Canister half - Pass Details

Date: 26 April 2021
Orbit: 1526 x 1682 km, 47.3° (Epoch: 13 May)

Event Time Altitude Azimuth Distance (km) Brightness Sun altitude
Rises 17:20:33 0° 285° (WNW) 4,909 14.1 8.8°
Reaches altitude 10° 17:23:41 10° 285° (WNW) 3,932 14.6 8.3°
Maximum altitude 17:33:50 81° 200° (SSW) 1,705 9.5 6.6°
Drops below altitude 10° 17:43:58 10° 116° (ESE) 3,925 10.5 4.9°
Sets 17:47:06 0° 115° (ESE) 4,899 11.0 4.4°
